GW4049 Weather Reports


Display with metric or nautical units.
time (UTC)temp
F
wind
direction
speed
MPH
gust
MPH
rain 1hr
in
rain 24hr
in
rain mn
in
humidity
%
barometer
mb
20260510225930 52 36 2.0 8.0 0.00 0.00 0.00 49 1031.4
20260510225427 53 59 8.0 14.0 0.00 0.00 0.00 48 1031.5
20260510224922 52 212 5.0 8.0 0.00 0.00 0.00 49 1031.5
20260510224419 51 44 2.0 4.0 0.00 0.00 0.00 49 1031.1
20260510223915 52 163 6.0 8.0 0.00 0.00 0.00 50 1031.2
20260510223413 52 181 5.0 8.0 0.00 0.00 0.00 48 1031.5
20260510222910 51 332 0.0 13.0 0.00 0.00 0.00 51 1031.2
20260510222408 53 33 4.0 7.0 0.00 0.00 0.00 49 1031.4
20260510221907 53 158 2.0 8.0 0.00 0.00 0.00 48 1031.4
20260510221405 52 310 1.0 8.0 0.00 0.00 0.00 49 1031.2
20260510220856 52 342 2.0 7.0 0.00 0.00 0.00 50 1031.4
20260510220352 52 101 3.0 7.0 0.00 0.00 0.00 50 1031.4
20260510215848 51 81 6.0 9.0 0.00 0.00 0.00 49 1031.1
20260510215345 54 53 4.0 4.0 0.00 0.00 0.00 47 1031.8
20260510214843 54 242 2.0 3.0 0.00 0.00 0.00 46 1031.4
20260510214340 51 37 2.0 8.0 0.00 0.00 0.00 52 1031.6
20260510213837 51 359 5.0 15.0 0.00 0.00 0.00 51 1031.4
20260510213333 53 304 3.0 8.0 0.00 0.00 0.00 49 1031.4
20260510212830 53 12 1.0 10.0 0.00 0.00 0.00 49 1031.4
20260510212327 53 332 3.0 7.0 0.00 0.00 0.00 48 1031.4
20260510211824 52 94 6.0 8.0 0.00 0.00 0.00 49 1031.8
20260510211320 53 313 3.0 9.0 0.00 0.00 0.00 51 1031.6
20260510210815 52 72 2.0 10.0 0.00 0.00 0.00 51 1031.8
20260510210310 53 252 1.0 7.0 0.00 0.00 0.00 50 1031.6
20260510205809 51 236 1.0 6.0 0.00 0.00 0.00 50 1031.8
20260510205307 52 120 5.0 9.0 0.00 0.00 0.00 51 1031.5
20260510204802 51 232 1.0 7.0 0.00 0.00 0.00 51 1031.6
20260510204258 51 352 3.0 4.0 0.00 0.00 0.00 52 1031.6
20260510203755 52 17 4.0 6.0 0.00 0.00 0.00 52 1031.6
20260510203253 51 254 3.0 6.0 0.00 0.00 0.00 51 1031.6
20260510202753 51 254 3.0 7.0 0.00 0.00 0.00 53 1031.8
20260510202249 49 20 4.0 13.0 0.00 0.00 0.00 55 1031.6
20260510201746 49 266 3.0 10.0 0.00 0.00 0.00 55 1031.8
20260510201242 50 289 2.0 7.0 0.00 0.00 0.00 54 1031.9
20260510200739 50 355 5.0 14.0 0.00 0.00 0.00 55 1031.5
20260510200237 50 48 6.0 9.0 0.00 0.00 0.00 54 1031.6
20260510195733 50 134 6.0 10.0 0.00 0.00 0.00 54 1031.9
20260510195230 50 266 0.0 9.0 0.00 0.00 0.00 54 1031.8
20260510194729 49 62 5.0 11.0 0.00 0.00 0.00 57 1031.8
20260510194226 50 209 3.0 6.0 0.00 0.00 0.00 56 1031.4
20260510193722 49 20 2.0 15.0 0.00 0.00 0.00 56 1031.8
20260510193217 49 129 7.0 9.0 0.00 0.00 0.00 56 1031.8
20260510192713 49 9 4.0 11.0 0.00 0.00 0.00 55 1031.6
20260510192208 49 38 5.0 8.0 0.00 0.00 0.00 54 1031.4
20260510191704 49 10 10.0 14.0 0.00 0.00 0.00 56 1031.5
20260510191201 49 77 4.0 8.0 0.00 0.00 0.00 54 1031.9
20260510190658 50 310 1.0 13.0 0.00 0.00 0.00 57 1031.8
20260510190156 49 343 3.0 8.0 0.00 0.00 0.00 58 1031.5
20260510185652 48 37 4.0 8.0 0.00 0.00 0.00 56 1031.4
20260510185150 49 47 6.0 8.0 0.00 0.00 0.00 55 1031.5
20260510184646 47 274 4.0 9.0 0.00 0.00 0.00 60 1031.6
20260510184143 49 339 5.0 13.0 0.00 0.00 0.00 61 1031.6
20260510183638 48 55 7.0 9.0 0.00 0.00 0.00 57 1031.9
20260510183133 48 312 2.0 9.0 0.00 0.00 0.00 61 1031.5
20260510182630 48 331 3.0 7.0 0.00 0.00 0.00 59 1031.6
20260510182126 49 3 7.0 11.0 0.00 0.00 0.00 60 1031.5
20260510181623 48 294 7.0 9.0 0.00 0.00 0.00 61 1031.8
20260510181120 49 53 7.0 8.0 0.00 0.00 0.00 59 1031.8
20260510180616 48 290 4.0 10.0 0.00 0.00 0.00 61 1031.9
20260510180114 46 282 4.0 6.0 0.00 0.00 0.00 63 1031.6
20260510175609 48 346 6.0 10.0 0.00 0.00 0.00 61 1031.6
20260510175105 49 26 6.0 11.0 0.00 0.00 0.00 61 1031.8
20260510174603 46 312 1.0 11.0 0.00 0.00 0.00 63 1031.6
20260510174100 46 58 2.0 7.0 0.00 0.00 0.00 63 1031.6
20260510173555 46 291 2.0 6.0 0.00 0.00 0.00 62 1031.8
20260510173052 46 349 10.0 11.0 0.00 0.00 0.00 61 1031.6
20260510172548 46 294 6.0 8.0 0.00 0.00 0.00 64 1031.8
20260510172044 46 310 4.0 7.0 0.00 0.00 0.00 63 1031.6
20260510171541 45 36 4.0 8.0 0.00 0.00 0.00 63 1031.8
20260510171039 46 3 2.0 7.0 0.00 0.00 0.00 60 1031.9
20260510170534 48 68 3.0 11.0 0.00 0.00 0.00 59 1031.5
20260510170031 47 35 5.0 7.0 0.00 0.00 0.00 59 1031.8
20260510165526 47 277 1.0 10.0 0.00 0.00 0.00 60 1031.8
20260510165018 47 357 6.0 10.0 0.00 0.00 0.00 59 1031.5
20260510164515 46 353 3.0 8.0 0.00 0.00 0.00 59 1031.6
20260510164011 46 298 6.0 8.0 0.00 0.00 0.00 55 1031.6
20260510163507 46 296 3.0 4.0 0.00 0.00 0.00 52 1031.5
20260510163003 46 332 4.0 7.0 0.00 0.00 0.00 53 1031.4
20260510162458 46 36 6.0 8.0 0.00 0.00 0.00 55 1031.8
20260510161955 45 347 4.0 7.0 0.00 0.00 0.00 55 1031.4
20260510161450 46 347 3.0 8.0 0.00 0.00 0.00 53 1031.4
20260510160947 46 51 4.0 10.0 0.00 0.00 0.00 53 1031.2
20260510160444 45 334 5.0 6.0 0.00 0.00 0.00 52 1031.5
20260510155942 47 261 2.0 4.0 0.00 0.00 0.00 48 1031.2
20260510155435 45 27 5.0 7.0 0.00 0.00 0.00 49 1031.0
20260510154931 45 357 4.0 8.0 0.00 0.00 0.00 47 1031.1
20260510154427 48 35 4.0 9.0 0.00 0.00 0.00 46 1031.2
20260510153925 46 276 4.0 6.0 0.00 0.00 0.00 52 1031.0
20260510153422 44 248 5.0 6.0 0.00 0.00 0.00 50 1031.4
20260510152919 46 264 0.0 2.0 0.00 0.00 0.00 50 1031.1
20260510152416 45 44 4.0 4.0 0.00 0.00 0.00 54 1031.2
20260510151912 44 277 3.0 4.0 0.00 0.00 0.00 61 1031.2
20260510151410 44 257 3.0 6.0 0.00 0.00 0.00 59 1031.0
20260510150906 43 30 3.0 4.0 0.00 0.00 0.00 64 1031.2
20260510150402 43 304 1.0 4.0 0.00 0.00 0.00 66 1031.0
20260510145858 43 306 1.0 3.0 0.00 0.00 0.00 65 1030.8
20260510145355 42 299 0.0 6.0 0.00 0.00 0.00 70 1030.7
20260510144852 43 288 0.0 2.0 0.00 0.00 0.00 68 1031.0
20260510144349 42 254 1.0 3.0 0.00 0.00 0.00 70 1030.8
20260510143849 43 344 2.0 2.0 0.00 0.00 0.00 69 1030.7
20260510143345 41 267 0.0 2.0 0.00 0.00 0.00 75 1030.7
20260510142842 40 341 4.0 7.0 0.00 0.00 0.00 79 1031.0
20260510142338 40 275 1.0 2.0 0.00 0.00 0.00 78 1031.0
20260510141835 40 5 2.0 4.0 0.00 0.00 0.00 77 1030.8
20260510141333 40 294 3.0 4.0 0.00 0.00 0.00 72 1030.7
20260510140830 39 255 0.0 3.0 0.00 0.00 0.00 77 1030.7
20260510140320 37 270 0.0 2.0 0.00 0.00 0.00 81 1031.0
20260510135814 37 258 0.0 0.0 0.00 0.00 0.00 81 1030.7
20260510135310 35 266 0.0 1.0 0.00 0.00 0.00 87 1030.7
20260510134808 35 274 1.0 3.0 0.00 0.00 0.00 87 1031.0
20260510134304 36 10 1.0 1.0 0.00 0.00 0.00 87 1030.7
20260510133800 36 273 0.0 1.0 0.00 0.00 0.00 88 1030.7
20260510133256 37 303 2.0 4.0 0.00 0.00 0.00 87 1030.8
20260510132752 37 284 0.0 1.0 0.00 0.00 0.00 86 1030.7
20260510132251 37 282 1.0 2.0 0.00 0.00 0.00 87 1030.8
20260510131747 36 264 0.0 1.0 0.00 0.00 0.00 89 1030.8
20260510131245 35 284 2.0 3.0 0.00 0.00 0.00 91 1030.8
20260510130741 35 271 1.0 2.0 0.00 0.00 0.00 92 1030.7
20260510130237 35 231 2.0 2.0 0.00 0.00 0.00 94 1030.8
20260510125733 34 276 0.0 0.0 0.00 0.00 0.00 96 1031.0
20260510125230 34 268 0.0 0.0 0.00 0.00 0.00 97 1030.7
20260510124726 33 276 0.0 0.0 0.00 0.00 0.00 98 1030.7
20260510124224 33 276 0.0 0.0 0.00 0.00 0.00 98 1030.8
20260510123719 33 276 0.0 0.0 0.00 0.00 0.00 98 1030.8
20260510123215 33 275 0.0 0.0 0.00 0.00 0.00 98 1030.7
20260510122712 33 271 0.0 0.0 0.00 0.00 0.00 98 1030.7
20260510122208 33 243 0.0 0.0 0.00 0.00 0.00 98 1030.4
20260510121704 33 244 0.0 0.0 0.00 0.00 0.00 99 1030.4
20260510121202 33 239 0.0 0.0 0.00 0.00 0.00 99 1030.3
20260510120659 33 248 0.0 0.0 0.00 0.00 0.00 99 1030.4
20260510120155 33 250 0.0 0.0 0.00 0.00 0.00 99 1030.3
20260510115646 33 251 0.0 0.0 0.00 0.00 0.00 99 1030.4
20260510115144 33 251 0.0 0.0 0.00 0.00 0.00 99 1030.2
20260510114640 33 251 0.0 0.0 0.00 0.00 0.00 99 1030.0
20260510114137 33 248 0.0 0.0 0.00 0.00 0.00 99 1030.0
20260510113631 33 252 0.0 0.0 0.00 0.00 0.00 99 1030.0
20260510113129 33 252 0.0 0.0 0.00 0.00 0.00 99 1030.0
20260510112626 33 253 0.0 0.0 0.00 0.00 0.00 99 1029.9
20260510112122 33 253 0.0 0.0 0.00 0.00 0.00 99 1030.0
20260510111618 33 274 0.0 0.0 0.00 0.00 0.00 99 1029.9
20260510111114 33 275 0.0 0.0 0.00 0.00 0.00 99 1029.9
20260510110610 33 283 0.0 0.0 0.00 0.00 0.00 99 1029.8
20260510110108 33 275 0.0 0.0 0.00 0.00 0.00 99 1030.0
20260510105603 33 274 0.0 0.0 0.00 0.00 0.00 99 1029.8
20260510105057 33 276 0.0 0.0 0.00 0.00 0.00 99 1029.8
20260510104554 33 269 0.0 0.0 0.00 0.00 0.00 99 1029.6
20260510104051 33 255 0.0 0.0 0.00 0.00 0.00 99 1029.9
20260510103548 33 255 0.0 0.0 0.00 0.00 0.00 99 1029.5
20260510103044 33 261 0.0 0.0 0.00 0.00 0.00 99 1029.5
20260510102539 33 252 0.0 0.0 0.00 0.00 0.00 99 1029.4
20260510102036 33 251 0.0 0.0 0.00 0.00 0.00 99 1029.5
20260510101534 33 242 0.0 0.0 0.00 0.00 0.00 99 1029.5
20260510101032 33 261 0.0 0.0 0.00 0.00 0.00 99 1029.6
20260510100528 32 265 0.0 0.0 0.00 0.00 0.00 99 1029.9
20260510100025 32 266 0.0 0.0 0.00 0.00 0.00 99 1029.4
20260510095521 32 260 0.0 0.0 0.00 0.00 0.00 99 1029.3
20260510095020 32 261 0.0 0.0 0.00 0.00 0.00 99 1029.4
20260510094515 32 248 0.0 2.0 0.00 0.00 0.00 99 1029.1
20260510094011 32 255 0.0 1.0 0.00 0.00 0.00 99 1029.4
20260510093507 32 248 0.0 1.0 0.00 0.00 0.00 99 1029.3
20260510093004 32 251 0.0 1.0 0.00 0.00 0.00 99 1029.1
20260510092501 32 279 0.0 2.0 0.00 0.00 0.00 99 1029.1
20260510092000 32 242 0.0 0.0 0.00 0.00 0.00 99 1028.9
20260510091457 32 240 0.0 0.0 0.00 0.00 0.00 99 1029.1
20260510090953 32 242 0.0 0.0 0.00 0.00 0.00 99 1029.0
20260510090451 32 253 0.0 0.0 0.00 0.00 0.00 99 1029.0
20260510085946 32 256 0.0 0.0 0.00 0.00 0.00 98 1028.9
20260510085441 32 242 0.0 0.0 0.00 0.00 0.00 98 1028.7
20260510084937 33 277 1.0 1.0 0.00 0.00 0.00 98 1028.6
20260510084434 33 241 0.0 1.0 0.00 0.00 0.00 98 1028.7
20260510083931 33 257 0.0 2.0 0.00 0.00 0.00 98 1028.5
20260510083428 33 236 3.0 3.0 0.00 0.00 0.00 99 1028.5
20260510082923 33 221 2.0 3.0 0.00 0.00 0.00 99 1028.6
20260510082421 33 231 1.0 4.0 0.00 0.00 0.00 99 1028.7
20260510081919 33 231 1.0 2.0 0.00 0.00 0.00 99 1029.0
20260510081416 33 257 0.0 1.0 0.00 0.00 0.00 99 1028.7
20260510080912 33 253 0.0 0.0 0.00 0.00 0.00 99 1029.0
20260510080411 33 246 2.0 4.0 0.00 0.00 0.00 99 1028.9
20260510075908 33 232 3.0 4.0 0.00 0.00 0.00 99 1029.1
20260510075407 33 223 4.0 6.0 0.00 0.00 0.00 99 1029.0
20260510074903 33 249 1.0 4.0 0.00 0.00 0.00 99 1029.0
20260510074400 33 233 2.0 4.0 0.00 0.00 0.00 99 1029.1
20260510073856 34 238 1.0 2.0 0.00 0.00 0.00 99 1029.1
20260510073352 34 245 2.0 2.0 0.00 0.00 0.00 99 1029.0
20260510072848 34 267 0.0 0.0 0.00 0.00 0.00 99 1029.4
20260510072345 34 267 0.0 0.0 0.00 0.00 0.00 99 1029.4
20260510071841 34 283 0.0 1.0 0.00 0.00 0.00 99 1029.6
20260510071337 34 276 0.0 1.0 0.00 0.00 0.00 99 1029.4
20260510070837 34 290 0.0 0.0 0.00 0.00 0.00 99 1029.4
20260510070332 34 271 0.0 0.0 0.00 0.00 0.00 99 1029.8
20260510065827 34 271 0.0 0.0 0.00 0.00 0.00 99 1029.6
20260510065324 34 264 0.0 0.0 0.00 0.00 0.00 99 1029.5
20260510064821 34 261 0.0 0.0 0.00 0.00 0.00 99 1029.6
20260510064319 34 250 0.0 0.0 0.00 0.00 0.00 99 1029.5
20260510063814 33 249 0.0 1.0 0.00 0.00 0.00 99 1029.6
20260510063311 34 245 1.0 2.0 0.00 0.00 0.00 99 1029.5
20260510062808 34 272 2.0 2.0 0.00 0.00 0.00 99 1029.8
20260510062306 34 236 2.0 2.0 0.00 0.00 0.00 99 1029.5
20260510061759 34 311 0.0 0.0 0.00 0.00 0.00 99 1029.5
20260510061256 34 248 0.0 3.0 0.00 0.00 0.00 99 1029.4
20260510060752 34 250 0.0 2.0 0.00 0.00 0.00 99 1029.1
20260510060249 34 230 1.0 3.0 0.00 0.00 0.00 99 1029.3
20260510055746 33 247 0.0 0.0 0.00 0.00 0.00 99 1029.5
20260510055244 33 274 0.0 1.0 0.00 0.00 0.00 99 1029.8
20260510054743 33 279 1.0 2.0 0.00 0.00 0.00 99 1029.6
20260510054240 33 273 0.0 3.0 0.00 0.00 0.00 99 1029.8
20260510053739 33 283 1.0 3.0 0.00 0.00 0.00 99 1029.5
20260510053236 33 309 1.0 4.0 0.00 0.00 0.00 99 1029.8
20260510052731 33 320 1.0 3.0 0.00 0.00 0.00 99 1029.8
20260510052228 33 275 0.0 1.0 0.00 0.00 0.00 99 1029.6
20260510051724 34 265 0.0 1.0 0.00 0.00 0.00 99 1029.8
20260510051220 33 342 1.0 2.0 0.00 0.00 0.00 99 1029.9
20260510050718 33 290 1.0 6.0 0.00 0.00 0.00 99 1029.9
20260510050215 33 276 1.0 2.0 0.00 0.00 0.00 99 1029.6
20260510045712 33 302 3.0 3.0 0.00 0.00 0.00 99 1029.5
20260510045208 33 30 3.0 6.0 0.00 0.00 0.00 99 1029.4
20260510044704 34 66 6.0 8.0 0.00 0.00 0.00 99 1029.4
20260510044202 34 299 3.0 7.0 0.00 0.00 0.00 99 1029.8
20260510043657 34 8 2.0 6.0 0.00 0.00 0.00 99 1029.8
20260510043154 34 343 1.0 2.0 0.00 0.00 0.00 99 1030.0
20260510042652 34 274 1.0 6.0 0.00 0.00 0.00 99 1030.2
20260510042148 34 249 0.0 4.0 0.00 0.00 0.00 99 1029.9
20260510041645 34 301 4.0 10.0 0.00 0.00 0.00 99 1030.2
20260510041142 34 278 1.0 4.0 0.00 0.00 0.00 99 1029.9
20260510040639 34 48 1.0 7.0 0.00 0.00 0.00 99 1029.6
20260510040136 34 324 4.0 8.0 0.00 0.00 0.00 98 1029.6
20260510035631 34 319 3.0 8.0 0.00 0.00 0.00 98 1029.5
20260510035126 35 285 3.0 7.0 0.00 0.00 0.00 98 1029.8
20260510034624 35 142 6.0 8.0 0.00 0.00 0.00 98 1029.5
20260510034121 35 300 5.0 8.0 0.00 0.00 0.00 98 1029.6
20260510033617 36 127 4.0 7.0 0.00 0.00 0.00 97 1029.4
20260510033115 36 267 2.0 4.0 0.00 0.00 0.00 97 1029.1
20260510032611 36 270 2.0 6.0 0.00 0.00 0.00 97 1029.3
20260510032106 36 286 2.0 4.0 0.00 0.00 0.00 96 1029.0
20260510031601 36 327 2.0 7.0 0.00 0.00 0.00 96 1029.3
20260510031058 36 338 2.0 3.0 0.00 0.00 0.00 97 1028.6
20260510030553 36 260 0.0 2.0 0.00 0.00 0.00 97 1028.7
20260510030051 36 241 1.0 2.0 0.00 0.00 0.00 97 1028.9
20260510025548 36 273 0.0 2.0 0.00 0.00 0.00 97 1029.0
20260510025046 36 282 3.0 4.0 0.00 0.00 0.00 97 1028.9
20260510024542 36 341 0.0 1.0 0.00 0.00 0.00 97 1028.5
20260510024038 36 295 1.0 6.0 0.00 0.00 0.00 97 1028.1
20260510023529 36 315 1.0 6.0 0.00 0.00 0.00 97 1027.7
20260510023027 36 333 7.0 11.0 0.00 0.00 0.00 96 1027.8
20260510022526 36 18 6.0 9.0 0.00 0.00 0.00 95 1027.3
20260510022025 36 348 4.0 14.0 0.00 0.00 0.00 94 1027.4
20260510021522 37 39 7.0 13.0 0.00 0.00 0.00 93 1027.1
20260510021021 37 40 5.0 8.0 0.00 0.00 0.00 91 1027.1
20260510020514 37 32 8.0 11.0 0.00 0.00 0.00 89 1026.8
20260510020010 38 356 5.0 9.0 0.00 0.00 0.00 87 1026.6
20260510015506 39 334 5.0 14.0 0.00 0.00 0.00 84 1026.5
20260510015001 40 271 6.0 14.0 0.00 0.00 0.00 82 1026.0
20260510014459 41 27 3.0 10.0 0.00 0.00 0.00 78 1026.0
20260510013955 42 349 3.0 7.0 0.00 0.00 0.00 74 1025.6
20260510013450 43 32 2.0 7.0 0.00 0.00 0.00 71 1025.4
20260510012946 45 356 5.0 13.0 0.00 0.00 0.00 67 1025.6
20260510012441 47 1 7.0 10.0 0.00 0.00 0.00 58 1025.3
20260510011937 53 349 6.0 8.0 0.00 0.00 0.00 21 1024.9
20260510011431 53 357 2.0 10.0 0.00 0.00 0.00 21 1024.8
20260510010927 54 343 1.0 8.0 0.00 0.00 0.00 23 1024.8
20260510010425 54 17 4.0 9.0 0.00 0.00 0.00 23 1024.6
20260510005922 55 329 8.0 10.0 0.00 0.00 0.00 22 1024.8
20260510005417 55 346 5.0 8.0 0.00 0.00 0.00 23 1024.8
20260510004915 55 303 7.0 15.0 0.00 0.00 0.00 22 1024.8
20260510004412 55 253 5.0 7.0 0.00 0.00 0.00 24 1024.4
20260510003910 55 345 5.0 10.0 0.00 0.00 0.00 24 1024.5
20260510003407 55 333 8.0 10.0 0.00 0.00 0.00 24 1024.4
20260510002906 55 21 6.0 9.0 0.00 0.00 0.00 25 1024.3
20260510002403 55 302 4.0 7.0 0.00 0.00 0.00 33 1024.3
20260510001900 55 328 6.0 7.0 0.00 0.00 0.00 33 1024.3
20260510001357 56 10 2.0 4.0 0.00 0.00 0.00 31 1024.0
20260510000854 56 341 7.0 10.0 0.00 0.00 0.00 29 1024.1
20260510000351 56 321 3.0 8.0 0.00 0.00 0.00 29 1024.3
20260509235847 55 15 2.0 8.0 0.00 0.00 0.00 30 1024.0
20260509235344 55 26 2.0 4.0 0.00 0.00 0.00 34 1024.1
20260509234840 55 356 2.0 3.0 0.00 0.00 0.00 34 1024.0
20260509234337 55 87 2.0 3.0 0.00 0.00 0.00 32 1023.6
20260509233836 56 251 1.0 4.0 0.00 0.00 0.00 34 1023.6
20260509233333 56 263 0.0 3.0 0.00 0.00 0.00 32 1023.7
20260509232828 56 333 3.0 9.0 0.00 0.00 0.00 34 1023.6
20260509232326 57 36 2.0 7.0 0.00 0.00 0.00 34 1023.6
20260509231822 57 309 2.0 6.0 0.00 0.00 0.00 32 1023.5
20260509231319 56 8 2.0 7.0 0.00 0.00 0.00 32 1023.7
20260509230817 56 312 3.0 7.0 0.00 0.00 0.00 29 1023.7
20260509230314 55 32 1.0 6.0 0.00 0.00 0.00 34 1023.6